[[{"header":{"parameterUnit":"m.s-1","parameterCategory":2,"la1":30.2991,"la2":30.254,"lo1":-89.0895,"lo2":-89.0444,"dy":0.0017,"dx":0.0017,"nx":28,"ny":28,"refTime":"2025-04-01T03:00:00:Z","depth":"0","parameterNumber":2,"parameterNumberName":"U-component_of_CURRENTS"},"data":[0,0,0,0,0,0,0,0,0,0,0,0,0,0,0,0,0,0,0,0,0,0,0,0,0,0,0,0,0,0,0,0,0,0,0,0,0,0,0,0,0,0,0,0,0,0,0,0,0,0,0,0,0,0,0,0,0,0,0.2786,0.2786,0,0.2786,0.2785,0.2785,0.2762,0.2762,0.2761,0.2761,0.2725,0.2724,0.2724,0,0,0,0,0,0,0,0,0,0,0,0,0,0.2767,0.2768,0.2786,0.2786,0.2786,0.2786,0.2785,0.2785,0.2762,0.2762,0.2761,0.2761,0.2725,0.2724,0.2724,0,0,0,0,0,0,0,0,0,0,0,0,0,0.277,0.2768,0.2786,0.2776,0.2775,0.2786,0.2785,0.2785,0.2762,0.2761,0.2761,0.276,0.2725,0.2724,0.2724,0.2731,0,0,0.2721,0.2721,0,0,0,0,0,0,0,0,0.277,0.277,0.2777,0.2777,0.2776,0.2775,0.2766,0.2766,0.2762,0.2765,0.2761,0.276,0.274,0.2738,0.2737,0.2729,0.2727,0.2721,0.272,0.272,0.272,0,0,0,0,0,0,0,0.277,0.277,0.2783,0.2778,0.2777,0.2772,0.2772,0.2766,0.2754,0.2765,0.2763,0.2767,0.2739,0.2738,0.2736,0.2727,0.2721,0.272,0.272,0.2719,0.2754,0.2756,0,0,0,0,0,0,0.2775,0.277,0.2784,0.2784,0.2774,0.2773,0.2773,0.2774,0.2754,0.2752,0.2768,0.2766,0.274,0.2737,0.2734,0.2759,0.272,0.2719,0.2719,0.2753,0.2755,0.2756,0,0,0,0,0,0,0.2774,0.2776,0.2784,0.2779,0.278,0.2775,0.2776,0.2775,0.2778,0.2758,0.2753,0.2773,0.2739,0.2736,0.274,0.2757,0.2719,0.2718,0.2751,0.2754,0.2756,0.2797,0,0,0,0,0,0,0.2774,0.2776,0.2779,0.2779,0.278,0.2797,0.2777,0.2775,0.2781,0.2779,0.2761,0.2757,0.2738,0.2742,0.274,0.2755,0.2717,0.2749,0.2752,0.2755,0.2794,0.2801,0.2806,0,0,0,0,0,0.2773,0.2779,0.2779,0.2781,0.2785,0.2798,0.2799,0.2791,0.2783,0.279,0.278,0.2757,0.2758,0.2742,0.2739,0.2755,0.2748,0.2751,0.2755,0.2791,0.2799,0.2806,0,0,0,0,0,0,0.2771,0.2778,0.2777,0.2785,0.2796,0.2795,0.2801,0.2799,0.2797,0.2795,0.2772,0.2768,0.2782,0.2767,0.2751,0.2776,0.2751,0.2754,0.278,0.2787,0.2793,0.28,0.2717,0,0,0,0,0,0.2774,0.2781,0.279,0.2797,0.2804,0.2806,0.281,0.281,0.2809,0.2808,0.2795,0.2789,0.2794,0.2789,0.2789,0.2797,0.2805,0.2808,0.2814,0.2819,0.2825,0.2858,0.2868,0.2767,0.2767,0.2767,0,0,0.2774,0.2781,0.2783,0.2797,0.2803,0.2815,0.2806,0.2821,0.283,0.2805,0.2811,0.2812,0.2804,0.2817,0.2821,0.2803,0.2855,0.2824,0.2828,0.2831,0.2863,0.2873,0.2881,0.2769,0.2769,0.2768,0,0,0.2777,0.2786,0.2792,0.2806,0.2824,0.2828,0.2837,0.2845,0.2849,0.2861,0.2852,0.2866,0.2857,0.2862,0.2861,0.2903,0.2892,0.2903,0.2928,0.2961,0.2969,0.2977,0.301,0.302,0.2898,0.2898,0.2898,0,0.2776,0.2785,0.2798,0.2811,0.2824,0.2836,0.285,0.286,0.2868,0.2878,0.2868,0.289,0.2881,0.2907,0.2921,0.2916,0.2933,0.2897,0.2968,0.2976,0.2983,0.3014,0.3025,0.2901,0.29,0.29,0.29,0,0.2783,0.2794,0.2803,0.2822,0.284,0.2858,0.2878,0.2893,0.2901,0.291,0.2943,0.2945,0.2955,0.2961,0.2949,0.2997,0.2994,0.2977,0.2947,0.2995,0.3026,0.3036,0.2904,0.2903,0.2903,0.2902,0,0,0.2766,0.2799,0.2801,0.2809,0.285,0.2858,0.2892,0.2921,0.2943,0.2958,0.299,0.3007,0.3015,0.3017,0.3017,0.3043,0.3107,0.303,0.3031,0.3058,0.3186,0.3185,0.3196,0.3102,0.3104,0.3105,0.3191,0,0.2765,0.2782,0.2808,0.2827,0.2838,0.2873,0.2902,0.2933,0.2964,0.2999,0.3023,0.3055,0.3035,0.3051,0.3075,0.3105,0.3134,0.3086,0.3139,0.3141,0.313,0.3208,0.315,0.3222,0.3201,0.3202,0.3204,0,0.2759,0.2772,0.2788,0.2825,0.2836,0.2851,0.2903,0.2932,0.2996,0.3031,0.3073,0.3096,0.3146,0.3122,0.3193,0.3163,0.3179,0.3197,0.32,0.3191,0.3159,0.3169,0.3241,0.3226,0.3219,0.3218,0.3217,0,0.2722,0.2757,0.2765,0.2777,0.2824,0.2839,0.2865,0.2931,0.2972,0.3054,0.3096,0.3157,0.3194,0.323,0.3265,0.3235,0.3348,0.3306,0.3321,0.3321,0.3278,0.3271,0.3335,0.3358,0.3358,0.3358,0.3357,0,0.2704,0.2709,0.2741,0.2741,0.276,0.2806,0.2844,0.2893,0.298,0.3028,0.31,0.3158,0.3224,0.3287,0.3304,0.336,0.3378,0.335,0.3352,0.3292,0.3286,0.3274,0.3228,0.3361,0.336,0.3359,0.3359,0,0.2657,0.2681,0.2688,0.2726,0.2738,0.2746,0.2821,0.2851,0.2947,0.3017,0.3049,0.3179,0.3273,0.3338,0.342,0.3412,0.3383,0.347,0.3402,0.3394,0.3371,0.3328,0.3162,0.307,0.35,0.3501,0.3502,0,0.2632,0.263,0.2659,0.266,0.2672,0.2699,0.2721,0.2821,0.2865,0.3018,0.3044,0.3184,0.327,0.3418,0.3462,0.3528,0.3406,0.3487,0.3413,0.339,0.3344,0.3126,0.3043,0.3378,0.3377,0.3377,0.3376,0,0.2586,0.2597,0.2602,0.2604,0.2613,0.2629,0.2667,0.2708,0.2821,0.2898,0.3013,0.3109,0.3287,0.3371,0.3484,0.3496,0.3341,0.3479,0.3473,0.3279,0.3026,0.2931,0.3303,0.3373,0.3373,0.3373,0.3373,0.3374,0.2551,0.2541,0.2547,0.2541,0.2547,0.2542,0.2531,0.2596,0.2662,0.2754,0.2908,0.3023,0.3256,0.3426,0.3428,0.3449,0.3308,0.3385,0.3346,0.3136,0.3005,0.3375,0.3431,0.3432,0.3433,0.3433,0.3434,0,0.2501,0.2491,0.2483,0.2457,0.2424,0.2459,0.2476,0.2457,0.2486,0.2642,0.274,0.2979,0.314,0.3301,0.3445,0.3369,0.3144,0.3281,0.299,0.2924,0.3312,0.3274,0.3276,0.3276,0.3276,0.3276,0.3276,0.3276,0.2474,0.2442,0.243,0.2343,0.232,0.2245,0.2237,0.2234,0.2316,0.2426,0.2558,0.2711,0.3048,0.3335,0.3392,0.33,0.305,0.2884,0.2831,0.3187,0.3194,0.32,0.3158,0.3136,0.3135,0.2335,0.2329,0.2325]},{"header":{"parameterUnit":"m.s-1","parameterCategory":2,"la1":30.2991,"la2":30.254,"lo1":-89.0895,"lo2":-89.0444,"dy":0.0017,"dx":0.0017,"nx":28,"ny":28,"refTime":"2025-04-01T03:00:00:Z","depth":"0","parameterNumber":3,"parameterNumberName":"V-component_of_CURRENTS"},"data":[0,0,0,0,0,0,0,0,0,0,0,0,0,0,0,0,0,0,0,0,0,0,0,0,0,0,0,0,0,0,0,0,0,0,0,0,0,0,0,0,0,0,0,0,0,0,0,0,0,0,0,0,0,0,0,0,0,0,0.0191,0.019,0,0.0124,0.0123,0.0122,0.0079,0.0079,0.0079,0.0079,-0.0015,-0.0017,-0.002,0,0,0,0,0,0,0,0,0,0,0,0,0,0.0232,0.0232,0.0191,0.019,0.019,0.0124,0.0123,0.0122,0.008,0.0079,0.0079,0.0079,-0.0014,-0.0017,-0.002,0,0,0,0,0,0,0,0,0,0,0,0,0,0.0193,0.0231,0.0191,0.0162,0.0159,0.0124,0.0123,0.0122,0.008,0.0079,0.0079,0.0079,-0.0013,-0.0017,-0.0021,-0.004,0,0,-0.0032,-0.0033,0,0,0,0,0,0,0,0,0.0195,0.0191,0.0167,0.0164,0.016,0.0111,0.0103,0.0067,0.008,0.0108,0.0079,0.0079,0.0026,0.0019,0.0005,-0.0044,-0.0048,-0.0032,-0.0034,-0.0036,-0.0037,0,0,0,0,0,0,0,0.0198,0.0194,0.0163,0.0166,0.0162,0.0135,0.013,0.0096,0.0067,0.0105,0.0102,0.0098,0.0024,0.0008,0.0002,-0.005,-0.0032,-0.0035,-0.0037,-0.0039,-0.0113,-0.0113,0,0,0,0,0,0,0.0213,0.0197,0.0165,0.0161,0.018,0.0135,0.0128,0.0126,0.0067,0.0059,0.0098,0.0096,0.0015,0.0006,-0.0001,-0.0009,-0.0036,-0.0039,-0.0041,-0.0114,-0.0113,-0.0113,0,0,0,0,0,0,0.0214,0.0211,0.0168,0.0178,0.0171,0.0135,0.0132,0.0125,0.0113,0.0063,0.0053,0.0095,0.0014,0.0004,-0.0023,-0.0013,-0.0041,-0.0044,-0.0114,-0.0114,-0.0113,-0.0035,0,0,0,0,0,0,0.0215,0.0211,0.0215,0.018,0.0171,0.0156,0.0132,0.0124,0.0111,0.0108,0.0056,0.0047,0.0013,-0.0017,-0.0026,-0.0019,-0.0047,-0.0114,-0.0114,-0.0113,-0.0038,-0.0033,-0.0028,0,0,0,0,0,0.0217,0.0226,0.0215,0.0212,0.0177,0.0157,0.015,0.0122,0.0111,0.011,0.0077,0.0049,-0.0021,-0.0019,-0.0031,-0.0024,-0.0114,-0.0114,-0.0113,-0.0041,-0.0034,-0.0028,0,0,0,0,0,0,0.0245,0.0221,0.0209,0.021,0.0189,0.0151,0.0148,0.0128,0.0101,0.01,0.0051,0.004,0.0019,-0.0014,-0.0011,-0.0045,-0.0073,-0.0074,-0.0014,-0.0008,-0.0002,0.002,-0.005,0,0,0,0,0,0.0254,0.0254,0.0225,0.0226,0.0219,0.0185,0.0174,0.0156,0.0128,0.0115,0.008,0.0042,0.0011,-0.0006,-0.004,-0.0058,-0.0089,-0.0062,-0.0057,-0.0052,-0.0042,-0.0081,-0.0078,-0.0112,-0.0112,-0.0112,0,0,0.0265,0.0253,0.0252,0.0232,0.0214,0.0214,0.0178,0.0169,0.0169,0.0109,0.0099,0.006,0.001,-0.0009,-0.0021,-0.0034,-0.0058,-0.0051,-0.0047,-0.004,-0.0081,-0.0077,-0.0074,-0.0111,-0.0112,-0.0112,0,0,0.0293,0.0278,0.0289,0.0277,0.0258,0.0239,0.0241,0.0209,0.0194,0.0176,0.0136,0.0108,0.0056,0.0027,0.0005,0.0018,-0.0029,0.0003,0.0048,0.001,0.0013,0.0015,-0.0013,-0.0015,0.0006,0.0006,0.0006,0,0.0308,0.0319,0.0289,0.0299,0.0298,0.0257,0.0273,0.0251,0.0215,0.0209,0.0184,0.0117,0.0075,0.0056,0.0059,0.0032,0.0004,0.0031,0.0019,0.002,0.0021,-0.0009,-0.0011,0.001,0.001,0.0009,0.0009,0,0.0345,0.0354,0.0361,0.0362,0.0356,0.0362,0.0334,0.0325,0.0301,0.0277,0.0251,0.0189,0.0153,0.0131,0.0097,0.0085,0.0061,0.0031,0.0008,0.0029,-0.0004,-0.0008,0.0015,0.0014,0.0013,0.0012,0,0,0.0383,0.0388,0.0391,0.0407,0.0393,0.0395,0.0397,0.0389,0.0399,0.0348,0.0351,0.0287,0.0253,0.0225,0.0176,0.014,0.0118,0.0094,0.009,0.0076,0.0041,0.0035,0.003,0.0085,0.0084,0.0084,0.0018,0,0.0424,0.0462,0.045,0.0488,0.0508,0.0478,0.0483,0.0468,0.0449,0.0439,0.0372,0.0352,0.0289,0.0274,0.0228,0.0148,0.0111,0.014,0.0013,0.001,0.001,0.0026,0.0077,0.0024,0.0014,0.0014,0.0013,0,0.0469,0.0489,0.0533,0.0558,0.0563,0.0574,0.0587,0.059,0.0562,0.0546,0.0513,0.0458,0.0404,0.0342,0.022,0.0241,0.0152,0.0082,0.0077,0.0043,-0.0002,-0.0003,0.0016,-0.01,0.0007,0.0007,0.0008,0,0.0517,0.0552,0.0592,0.0598,0.0611,0.0624,0.0632,0.0621,0.0645,0.062,0.063,0.0547,0.0514,0.0391,0.0249,0.0233,0.0111,0.0067,-0.0022,-0.0024,-0.0018,-0.0019,-0.0117,-0.002,-0.002,-0.002,-0.002,0,0.0569,0.0602,0.0617,0.0637,0.0688,0.0677,0.0729,0.0723,0.0736,0.0775,0.0692,0.0704,0.0523,0.043,0.0284,0.0132,0.0136,-0.0005,-0.0039,0.001,0.0013,-0.012,-0.0211,-0.0022,-0.0022,-0.0021,-0.0021,0,0.0614,0.0622,0.0672,0.0698,0.0711,0.0747,0.0803,0.0844,0.0843,0.0892,0.089,0.0824,0.0712,0.0529,0.0336,0.0193,-0.0041,-0.0023,0.0053,0.0029,-0.0164,-0.0253,-0.0399,-0.0504,-0.0131,-0.0131,-0.0131,0,0.0641,0.067,0.072,0.0757,0.0771,0.0827,0.0868,0.0894,0.0952,0.0973,0.1007,0.092,0.0892,0.0617,0.0357,0.0113,-0.0046,-0.0028,-0.0055,-0.0159,-0.0283,-0.0337,-0.0419,-0.002,-0.0019,-0.0019,-0.0018,0,0.0695,0.0707,0.0747,0.082,0.0873,0.0946,0.1013,0.1077,0.1111,0.1166,0.1218,0.12,0.0955,0.0758,0.0416,0.0222,-0.0113,-0.0027,-0.0156,-0.0218,-0.0262,-0.0382,0.0007,-0.0014,-0.0015,-0.0015,-0.0015,-0.0015,0.0733,0.077,0.082,0.0892,0.0959,0.1049,0.1122,0.1213,0.132,0.1418,0.1392,0.144,0.1146,0.0708,0.0397,-0.0059,-0.0102,-0.0176,-0.0278,-0.0324,-0.0414,-0.0011,-0.0059,-0.006,-0.0061,-0.0061,-0.0061,0,0.0783,0.0821,0.0891,0.0973,0.1055,0.1081,0.1208,0.1296,0.1437,0.1572,0.1643,0.1622,0.1217,0.0775,0.0161,-0.0207,-0.038,-0.0407,-0.0469,-0.0551,-0.0194,-0.0176,-0.0224,-0.0224,-0.0224,-0.0224,-0.0224,-0.0224,0.0809,0.0877,0.0908,0.1037,0.1099,0.1213,0.129,0.1432,0.1572,0.179,0.1923,0.1996,0.1794,0.064,-0.0153,-0.0411,-0.0716,-0.0743,-0.0934,-0.0666,-0.0651,-0.0637,-0.064,-0.0785,-0.0786,-0.1219,-0.1223,-0.1226]}],[{"header":{"parameterUnit":"m.s-1","parameterCategory":2,"la1":30.2991,"la2":30.254,"lo1":-89.0895,"lo2":-89.0444,"dy":0.0017,"dx":0.0017,"nx":28,"ny":28,"refTime":"2025-04-01T03:00:00:Z","depth":"2","parameterNumber":2,"parameterNumberName":"U-component_of_CURRENTS"},"data":[0,0,0,0,0,0,0,0,0,0,0,0,0,0,0,0,0,0,0,0,0,0,0,0,0,0,0,0,0,0,0,0,0,0,0,0,0,0,0,0,0,0,0,0,0,0,0,0,0,0,0,0,0,0,0,0,0,0,0.2783,0.2783,0,0.2784,0.2784,0.2784,0.2763,0.2762,0.2762,0.2762,0.273,0.2729,0.2729,0,0,0,0,0,0,0,0,0,0,0,0,0,0.2763,0.2763,0.2783,0.2783,0.2783,0.2784,0.2784,0.2783,0.2763,0.2762,0.2762,0.2762,0.273,0.2729,0.2729,0,0,0,0,0,0,0,0,0,0,0,0,0,0.2767,0.2763,0.2783,0.2774,0.2774,0.2784,0.2784,0.2783,0.2763,0.2762,0.2762,0.2761,0.273,0.2729,0.2729,0.2735,0,0,0.2726,0.2726,0,0,0,0,0,0,0,0,0.2766,0.2767,0.2775,0.2775,0.2774,0.2774,0.2765,0.2766,0.2763,0.2765,0.2762,0.2761,0.2743,0.2742,0.2741,0.2734,0.2732,0.2726,0.2726,0.2726,0.2725,0,0,0,0,0,0,0,0.2766,0.2767,0.2781,0.2776,0.2775,0.2771,0.2771,0.2765,0.2755,0.2765,0.2764,0.2767,0.2743,0.2741,0.274,0.2732,0.2726,0.2726,0.2725,0.2725,0.2762,0.2763,0,0,0,0,0,0,0.2771,0.2767,0.2781,0.2781,0.2771,0.2772,0.2771,0.2773,0.2756,0.2753,0.2768,0.2766,0.2743,0.274,0.2738,0.2765,0.2726,0.2725,0.2724,0.276,0.2762,0.2764,0,0,0,0,0,0,0.277,0.2772,0.2781,0.2776,0.2777,0.2773,0.2775,0.2774,0.2778,0.2759,0.2755,0.2774,0.2742,0.2739,0.2745,0.2762,0.2725,0.2724,0.2759,0.2761,0.2763,0.2804,0,0,0,0,0,0,0.277,0.2772,0.2776,0.2776,0.2777,0.2795,0.2776,0.2774,0.2781,0.278,0.2763,0.2759,0.2742,0.2747,0.2745,0.2761,0.2723,0.2757,0.276,0.2762,0.2801,0.2808,0.2813,0,0,0,0,0,0.2769,0.2776,0.2776,0.2778,0.2782,0.2796,0.2796,0.279,0.2782,0.279,0.2782,0.276,0.2763,0.2747,0.2745,0.276,0.2756,0.2759,0.2762,0.2799,0.2806,0.2813,0,0,0,0,0,0,0.2767,0.2775,0.2774,0.2782,0.2793,0.2793,0.28,0.2798,0.2797,0.2796,0.2774,0.277,0.2786,0.2772,0.2755,0.2782,0.2758,0.276,0.2786,0.2793,0.2799,0.2805,0.2723,0,0,0,0,0,0.2771,0.2777,0.2787,0.2794,0.2802,0.2804,0.2808,0.2809,0.2809,0.2808,0.2797,0.2792,0.2798,0.2793,0.2795,0.2803,0.2811,0.2815,0.2821,0.2826,0.2832,0.2864,0.2874,0.2774,0.2774,0.2774,0,0,0.277,0.2777,0.278,0.2795,0.2801,0.2813,0.2805,0.282,0.2829,0.2805,0.2813,0.2815,0.2808,0.2822,0.2827,0.2809,0.2862,0.283,0.2834,0.2837,0.2869,0.2878,0.2887,0.2777,0.2776,0.2776,0,0,0.2774,0.2784,0.279,0.2803,0.2822,0.2827,0.2835,0.2844,0.2848,0.2861,0.2853,0.2868,0.2862,0.2866,0.2866,0.2908,0.2898,0.2909,0.2934,0.2966,0.2974,0.2981,0.3013,0.3023,0.2904,0.2904,0.2904,0,0.2774,0.2783,0.2795,0.2809,0.2822,0.2834,0.2848,0.2859,0.2868,0.2878,0.2869,0.2893,0.2885,0.2912,0.2926,0.2921,0.2937,0.2903,0.2973,0.2981,0.2987,0.3018,0.3028,0.2907,0.2906,0.2906,0.2906,0,0.278,0.2792,0.2801,0.282,0.2838,0.2856,0.2877,0.2892,0.29,0.291,0.2944,0.2947,0.2958,0.2964,0.2954,0.3001,0.2998,0.2982,0.2952,0.3,0.3029,0.3039,0.291,0.2909,0.2909,0.2908,0,0,0.2764,0.2797,0.2799,0.2808,0.2848,0.2857,0.289,0.2919,0.2941,0.2958,0.299,0.3008,0.3017,0.302,0.302,0.3046,0.3109,0.3034,0.3035,0.3061,0.3186,0.3182,0.3192,0.3105,0.3106,0.3108,0.3191,0,0.2764,0.278,0.2806,0.2826,0.2837,0.2872,0.29,0.2932,0.2963,0.2999,0.3023,0.3055,0.3036,0.3053,0.3077,0.3107,0.3136,0.3088,0.314,0.3142,0.3128,0.3203,0.2908,0.2957,0.32,0.3202,0.3203,0,0.2758,0.2771,0.2787,0.2825,0.2835,0.285,0.2903,0.2931,0.2995,0.303,0.3072,0.3095,0.3146,0.3123,0.3193,0.3164,0.3179,0.3197,0.32,0.3187,0.3156,0.2948,0.2966,0.3219,0.3218,0.3217,0.3216,0,0.2722,0.2756,0.2765,0.2778,0.2824,0.2839,0.2866,0.2931,0.2972,0.3054,0.3095,0.3156,0.3193,0.3228,0.3263,0.3234,0.3344,0.3303,0.3314,0.3314,0.3069,0.3044,0.3354,0.3354,0.3354,0.3354,0.3354,0,0.2704,0.271,0.2743,0.2743,0.2762,0.2807,0.2846,0.2894,0.298,0.3028,0.3099,0.3156,0.3222,0.3284,0.33,0.3353,0.3373,0.3343,0.3344,0.3078,0.3055,0.3278,0.3267,0.3357,0.3356,0.3356,0.3355,0,0.2659,0.2682,0.269,0.2729,0.2741,0.2749,0.2824,0.2854,0.2949,0.3018,0.305,0.3177,0.3269,0.3332,0.3413,0.3403,0.3452,0.3458,0.3153,0.3118,0.3388,0.3379,0.3481,0.3482,0.3483,0.3483,0.3484,0,0.2633,0.2633,0.2662,0.2663,0.2676,0.2704,0.2725,0.2824,0.2868,0.3019,0.3044,0.3181,0.3258,0.3401,0.3397,0.3447,0.3497,0.322,0.3116,0.3415,0.3405,0.3396,0.3386,0.28,0.2795,0.2791,0.2787,0,0.2589,0.26,0.2606,0.2609,0.2618,0.2635,0.2673,0.2712,0.2824,0.2896,0.3006,0.3093,0.3223,0.3165,0.3254,0.3233,0.3192,0.3141,0.3521,0.2836,0.2785,0.2773,0.2783,0.275,0.2753,0.2756,0.2758,0.276,0.2554,0.2544,0.2551,0.2546,0.2553,0.2548,0.2537,0.2587,0.2645,0.2701,0.2861,0.2887,0.2954,0.2952,0.2884,0.2828,0.3055,0.2913,0.292,0.2932,0.2861,0.2816,0.2773,0.2776,0.278,0.2783,0.2785,0,0.2495,0.2495,0.2488,0.2464,0.2422,0.2467,0.2483,0.2439,0.2442,0.2525,0.2583,0.243,0.2419,0.2483,0.234,0.2383,0.2279,0.229,0.2111,0.2154,0.219,0.2073,0.178,0.1777,0.1773,0.177,0,0,0.2467,0.2431,0.2418,0.2329,0.2316,0.2228,0.2219,0.2176,0.2191,0.2154,0.2142,0.2299,0.2431,0.2065,0.2035,0.1883,0.1989,0.1804,0.2617,0.2449,0.2481,0.2571,0.2446,0,0,0,0,0]},{"header":{"parameterUnit":"m.s-1","parameterCategory":2,"la1":30.2991,"la2":30.254,"lo1":-89.0895,"lo2":-89.0444,"dy":0.0017,"dx":0.0017,"nx":28,"ny":28,"refTime":"2025-04-01T03:00:00:Z","depth":"2","parameterNumber":3,"parameterNumberName":"V-component_of_CURRENTS"},"data":[0,0,0,0,0,0,0,0,0,0,0,0,0,0,0,0,0,0,0,0,0,0,0,0,0,0,0,0,0,0,0,0,0,0,0,0,0,0,0,0,0,0,0,0,0,0,0,0,0,0,0,0,0,0,0,0,0,0,0.015,0.0149,0,0.0084,0.0083,0.0082,0.004,0.004,0.004,0.004,-0.0053,-0.0055,-0.0058,0,0,0,0,0,0,0,0,0,0,0,0,0,0.019,0.0189,0.015,0.0149,0.0148,0.0084,0.0083,0.0082,0.004,0.004,0.004,0.004,-0.0052,-0.0055,-0.0058,0,0,0,0,0,0,0,0,0,0,0,0,0,0.0152,0.0189,0.015,0.0121,0.0118,0.0084,0.0083,0.0082,0.004,0.004,0.004,0.004,-0.0051,-0.0055,-0.0058,-0.0078,0,0,-0.0069,-0.0071,0,0,0,0,0,0,0,0,0.0154,0.015,0.0126,0.0123,0.012,0.0072,0.0063,0.0028,0.004,0.0068,0.004,0.004,-0.0012,-0.0019,-0.0033,-0.0082,-0.0086,-0.0069,-0.0072,-0.0073,-0.0074,0,0,0,0,0,0,0,0.0157,0.0152,0.0122,0.0125,0.0122,0.0095,0.0089,0.0056,0.0027,0.0066,0.0063,0.0058,-0.0015,-0.003,-0.0036,-0.0088,-0.0069,-0.0073,-0.0075,-0.0076,-0.015,-0.015,0,0,0,0,0,0,0.0171,0.0155,0.0124,0.012,0.0139,0.0094,0.0088,0.0086,0.0028,0.002,0.0059,0.0057,-0.0024,-0.0032,-0.0039,-0.0047,-0.0073,-0.0077,-0.0079,-0.015,-0.015,-0.015,0,0,0,0,0,0,0.0172,0.0169,0.0127,0.0137,0.013,0.0094,0.0091,0.0085,0.0074,0.0024,0.0014,0.0055,-0.0024,-0.0034,-0.006,-0.0051,-0.0078,-0.0081,-0.0151,-0.015,-0.015,-0.0073,0,0,0,0,0,0,0.0174,0.017,0.0173,0.0138,0.013,0.0116,0.0092,0.0083,0.0072,0.0068,0.0018,0.0009,-0.0025,-0.0055,-0.0064,-0.0057,-0.0084,-0.0151,-0.0151,-0.015,-0.0076,-0.0071,-0.0066,0,0,0,0,0,0.0175,0.0184,0.0174,0.017,0.0136,0.0116,0.011,0.0082,0.0072,0.0071,0.0038,0.001,-0.0059,-0.0057,-0.0068,-0.0062,-0.0151,-0.0151,-0.015,-0.0079,-0.0072,-0.0066,0,0,0,0,0,0,0.0203,0.018,0.0168,0.0169,0.0148,0.011,0.0108,0.0088,0.0061,0.0061,0.0013,0.0001,-0.0019,-0.0052,-0.0048,-0.0083,-0.011,-0.0112,-0.0052,-0.0046,-0.0041,-0.0019,-0.0087,0,0,0,0,0,0.0212,0.0212,0.0184,0.0185,0.0178,0.0144,0.0133,0.0116,0.0088,0.0076,0.0041,0.0004,-0.0027,-0.0044,-0.0078,-0.0096,-0.0126,-0.01,-0.0095,-0.009,-0.008,-0.012,-0.0117,-0.0149,-0.0149,-0.0149,0,0,0.0223,0.0211,0.021,0.0191,0.0173,0.0173,0.0137,0.0128,0.0128,0.007,0.006,0.0021,-0.0028,-0.0047,-0.0059,-0.0072,-0.0096,-0.0089,-0.0085,-0.0078,-0.0119,-0.0116,-0.0113,-0.0148,-0.0148,-0.0149,0,0,0.0251,0.0236,0.0247,0.0235,0.0217,0.0197,0.02,0.0168,0.0153,0.0135,0.0096,0.0068,0.0017,-0.0012,-0.0034,-0.0021,-0.0067,-0.0036,0.0008,-0.003,-0.0027,-0.0025,-0.0053,-0.0055,-0.0033,-0.0033,-0.0033,0,0.0266,0.0277,0.0247,0.0256,0.0255,0.0215,0.0231,0.0209,0.0173,0.0167,0.0143,0.0077,0.0035,0.0016,0.0019,-0.0008,-0.0036,-0.0009,-0.0021,-0.002,-0.002,-0.0049,-0.0052,-0.0029,-0.0029,-0.003,-0.003,0,0.0302,0.0311,0.0318,0.0318,0.0312,0.0318,0.029,0.0281,0.0257,0.0234,0.0207,0.0147,0.0111,0.0089,0.0057,0.0043,0.0021,-0.0009,-0.0032,-0.0011,-0.0044,-0.0048,-0.0024,-0.0025,-0.0026,-0.0027,0,0,0.0339,0.0344,0.0347,0.0362,0.0348,0.0349,0.0351,0.0342,0.0353,0.0302,0.0305,0.0242,0.0209,0.0181,0.0133,0.0097,0.0075,0.0052,0.0049,0.0034,-0.0002,-0.0008,-0.0013,0.0042,0.0042,0.0042,-0.0024,0,0.0379,0.0415,0.0404,0.0441,0.046,0.043,0.0434,0.042,0.0401,0.0391,0.0325,0.0305,0.0243,0.0229,0.0184,0.0105,0.0068,0.0096,-0.0028,-0.0032,-0.0032,-0.0017,-0.0016,-0.0074,-0.0028,-0.0029,-0.0029,0,0.0423,0.0443,0.0485,0.0508,0.0513,0.0524,0.0536,0.0539,0.0511,0.0495,0.0462,0.0409,0.0355,0.0295,0.0174,0.0195,0.0108,0.0038,0.0033,0.0,-0.0045,-0.009,-0.0083,-0.0036,-0.0036,-0.0035,-0.0035,0,0.0471,0.0504,0.0542,0.0549,0.0561,0.0574,0.0581,0.057,0.0593,0.0568,0.0578,0.0495,0.0463,0.0342,0.0202,0.0186,0.0065,0.0023,-0.0066,-0.0067,-0.0105,-0.0108,-0.0064,-0.0064,-0.0064,-0.0064,-0.0064,0,0.0521,0.0553,0.0568,0.0587,0.0637,0.0626,0.0677,0.0671,0.0683,0.0721,0.0639,0.0649,0.0472,0.038,0.0236,0.0085,0.009,-0.005,-0.0083,-0.0077,-0.0078,-0.0079,-0.008,-0.0066,-0.0066,-0.0065,-0.0065,0,0.0566,0.0573,0.0623,0.0647,0.066,0.0696,0.075,0.0791,0.0789,0.0837,0.0834,0.0768,0.0656,0.0476,0.0285,0.0145,-0.001,-0.0069,-0.0043,-0.0071,-0.0128,-0.0124,-0.0174,-0.0174,-0.0175,-0.0175,-0.0176,0,0.0593,0.0621,0.067,0.0706,0.072,0.0775,0.0816,0.084,0.0897,0.0916,0.0948,0.0862,0.0828,0.0556,0.0288,0.0044,0.0007,-0.0125,-0.0159,-0.0111,-0.0139,-0.0134,-0.0129,-0.0182,-0.0183,-0.0183,-0.0183,0,0.0645,0.0658,0.0696,0.077,0.0822,0.0893,0.0958,0.102,0.1053,0.1101,0.1148,0.1125,0.0873,0.0632,0.0289,0.0109,-0.0087,-0.014,-0.0103,-0.0145,-0.0122,-0.0148,-0.0143,-0.0187,-0.0186,-0.0186,-0.0186,-0.0186,0.0684,0.072,0.0769,0.0841,0.0907,0.0994,0.1065,0.1131,0.1228,0.1272,0.1272,0.1221,0.0962,0.0521,0.0234,-0.0096,-0.008,-0.0214,-0.0212,-0.021,-0.019,-0.0168,-0.0237,-0.0237,-0.0237,-0.0237,-0.0237,0,0.0724,0.0771,0.0839,0.0921,0.0987,0.1027,0.115,0.119,0.129,0.1331,0.1357,0.1095,0.0853,0.0549,0.0071,-0.0193,-0.023,-0.0291,-0.0277,-0.0272,-0.0268,-0.025,-0.0314,-0.0315,-0.0316,-0.0316,0,0,0.0747,0.0809,0.0839,0.0957,0.1029,0.1106,0.118,0.1236,0.1276,0.1294,0.1275,0.1246,0.0925,0.0568,0.0212,-0.0053,-0.0113,-0.012,-0.0034,0.0028,0.0035,-0.0202,-0.0166,0,0,0,0,0]}],[{"header":{"parameterUnit":"m.s-1","parameterCategory":2,"la1":30.2991,"la2":30.254,"lo1":-89.0895,"lo2":-89.0444,"dy":0.0017,"dx":0.0017,"nx":28,"ny":28,"refTime":"2025-04-01T03:00:00:Z","depth":"4","parameterNumber":2,"parameterNumberName":"U-component_of_CURRENTS"},"data":[0,0,0,0,0,0,0,0,0,0,0,0,0,0,0,0,0,0,0,0,0,0,0,0,0,0,0,0,0,0,0,0,0,0,0,0,0,0,0,0,0,0,0,0,0,0,0,0,0,0,0,0,0,0,0,0,0,0,0.1776,0.1776,0,0.1834,0.1834,0.1835,0.1884,0.1885,0.1886,0.1886,0.1956,0.1957,0.1958,0,0,0,0,0,0,0,0,0,0,0,0,0,0.1697,0.1698,0.1776,0.1776,0.1777,0.1834,0.1834,0.1835,0.1884,0.1885,0.1886,0.1887,0.1955,0.1957,0.1958,0,0,0,0,0,0,0,0,0,0,0,0,0,0.1739,0.1699,0.1775,0.181,0.1814,0.1833,0.1834,0.1835,0.1884,0.1885,0.1886,0.1887,0.1955,0.1956,0.1958,0.1949,0,0,0.1964,0.1965,0,0,0,0,0,0,0,0,0.1737,0.1742,0.1804,0.1808,0.1812,0.1854,0.1832,0.1874,0.1884,0.1856,0.1886,0.1888,0.1923,0.1927,0.1934,0.1952,0.1955,0.1964,0.1965,0.1966,0.1966,0,0,0,0,0,0,0,0.1734,0.174,0.1797,0.1805,0.181,0.1819,0.1826,0.184,0.1882,0.1858,0.1862,0.1871,0.1925,0.1932,0.1936,0.1956,0.1964,0.1965,0.1967,0.1967,0.2087,0.2089,0,0,0,0,0,0,0.1729,0.1737,0.1795,0.1799,0.1778,0.1819,0.1827,0.1838,0.1882,0.189,0.187,0.1873,0.1928,0.1934,0.1938,0.2032,0.1966,0.1967,0.1968,0.2085,0.2087,0.209,0,0,0,0,0,0,0.1727,0.1734,0.1793,0.177,0.1779,0.182,0.1832,0.1839,0.1884,0.1891,0.1899,0.1912,0.1929,0.1936,0.199,0.2031,0.1968,0.197,0.2082,0.2086,0.2088,0.2153,0,0,0,0,0,0,0.1725,0.1733,0.1757,0.177,0.178,0.183,0.1831,0.1839,0.1886,0.1892,0.1929,0.1934,0.1931,0.1987,0.1992,0.2032,0.1971,0.208,0.2084,0.2087,0.2148,0.2158,0.2166,0,0,0,0,0,0.1722,0.1744,0.1758,0.1766,0.1806,0.1832,0.1838,0.1869,0.1887,0.1913,0.1944,0.1935,0.2015,0.199,0.1995,0.2037,0.2078,0.2083,0.2087,0.2144,0.2156,0.2166,0,0,0,0,0,0,0.1724,0.1752,0.1767,0.1798,0.1826,0.1841,0.1873,0.1891,0.1934,0.1953,0.1958,0.1966,0.203,0.2026,0.1998,0.2085,0.2047,0.2052,0.2088,0.2099,0.2108,0.2106,0.1973,0,0,0,0,0,0.1734,0.1763,0.1785,0.1816,0.1833,0.1861,0.1883,0.1905,0.1935,0.1957,0.1983,0.2015,0.2046,0.2068,0.2091,0.2135,0.2133,0.2167,0.2176,0.2184,0.2187,0.2222,0.2234,0.2105,0.2105,0.2105,0,0,0.1744,0.1765,0.1783,0.182,0.1847,0.1874,0.1878,0.1924,0.1958,0.1956,0.2026,0.2051,0.2066,0.2119,0.2147,0.2125,0.2222,0.219,0.2196,0.2195,0.2228,0.224,0.2251,0.2108,0.2108,0.2107,0,0,0.1764,0.18,0.1825,0.1852,0.1898,0.1913,0.1935,0.1974,0.201,0.2066,0.208,0.2131,0.2176,0.2196,0.2209,0.2282,0.2271,0.2299,0.234,0.2375,0.2385,0.2394,0.2415,0.2425,0.23,0.2301,0.2301,0,0.1778,0.181,0.1838,0.1868,0.1898,0.1935,0.1967,0.2003,0.2058,0.2091,0.2102,0.2192,0.2209,0.2267,0.2298,0.2302,0.2316,0.2295,0.2385,0.2394,0.2403,0.2421,0.2432,0.2304,0.2304,0.2303,0.2303,0,0.1801,0.1843,0.1865,0.1913,0.1948,0.1988,0.2031,0.2082,0.2129,0.2159,0.2245,0.2276,0.2325,0.2346,0.2345,0.242,0.241,0.2393,0.2353,0.2419,0.2435,0.2445,0.2309,0.2308,0.2307,0.2306,0,0,0.1787,0.1866,0.1877,0.1909,0.1979,0.2003,0.2073,0.2134,0.2186,0.2251,0.2317,0.2382,0.2409,0.2426,0.2442,0.2477,0.2552,0.2468,0.2469,0.248,0.263,0.2468,0.2463,0.2556,0.2558,0.256,0.2619,0,0.1801,0.1858,0.1899,0.1963,0.1994,0.2056,0.2113,0.2177,0.2242,0.2315,0.2368,0.2439,0.2435,0.2479,0.2513,0.2548,0.2581,0.2537,0.2571,0.2572,0.2413,0.247,0.2566,0.2626,0.2628,0.263,0.2631,0,0.1802,0.1843,0.1905,0.1988,0.201,0.2059,0.2158,0.2216,0.2318,0.2375,0.2452,0.2495,0.2575,0.2558,0.2641,0.2618,0.2633,0.2647,0.2649,0.2479,0.2428,0.2546,0.2648,0.2647,0.2646,0.2644,0.2643,0,0.1756,0.1844,0.1896,0.1925,0.2023,0.2075,0.2136,0.2238,0.23,0.2424,0.248,0.257,0.263,0.267,0.2706,0.2689,0.2781,0.2752,0.2617,0.2606,0.2704,0.2693,0.2802,0.2802,0.2802,0.2802,0.2802,0,0.1732,0.1778,0.1886,0.1911,0.1982,0.2062,0.2151,0.2227,0.2345,0.2405,0.251,0.2562,0.2665,0.2721,0.2737,0.2704,0.2805,0.2629,0.2611,0.2731,0.2723,0.2711,0.2699,0.2804,0.2804,0.2803,0.2803,0,0.1668,0.1741,0.1805,0.1921,0.1961,0.2013,0.215,0.2204,0.2331,0.2416,0.2461,0.2589,0.2654,0.2727,0.28,0.2723,0.2723,0.2686,0.282,0.2808,0.2517,0.2509,0.2529,0.2524,0.252,0.2516,0.2513,0,0.1635,0.1664,0.1796,0.1835,0.1895,0.1988,0.2044,0.2184,0.2236,0.2399,0.2417,0.2541,0.2602,0.2571,0.2666,0.2682,0.2652,0.2628,0.2556,0.2509,0.2491,0.2489,0.2487,0.2506,0.2505,0.2504,0.2503,0,0.1571,0.1637,0.169,0.1772,0.1841,0.1903,0.1994,0.2017,0.2159,0.2292,0.2313,0.2346,0.2413,0.2462,0.2498,0.2504,0.2629,0.2581,0.2589,0.2521,0.2481,0.2467,0.247,0.2487,0.2489,0.2491,0.2492,0,0.153,0.155,0.1631,0.1686,0.1767,0.1786,0.1849,0.1894,0.1961,0.2124,0.2128,0.2253,0.238,0.2371,0.2405,0.2401,0.2358,0.2268,0.2292,0.231,0.2211,0.2126,0.201,0,0,0,0,0,0.1476,0.1485,0.1534,0.1583,0.1656,0.17,0.1797,0.186,0.1986,0.1944,0.2028,0.2076,0.2113,0.219,0.2142,0.2324,0.2381,0.2258,0.2292,0.2403,0.242,0.2325,0,0,0,0,0,0,0.1439,0.1486,0.1496,0.1482,0.1495,0.1554,0.1608,0.1695,0.1677,0.1814,0.185,0.1953,0.2032,0.2123,0.2105,0.2128,0.2105,0.2346,0.2341,0.2393,0.2409,0.2423,0.2331,0,0,0,0,0]},{"header":{"parameterUnit":"m.s-1","parameterCategory":2,"la1":30.2991,"la2":30.254,"lo1":-89.0895,"lo2":-89.0444,"dy":0.0017,"dx":0.0017,"nx":28,"ny":28,"refTime":"2025-04-01T03:00:00:Z","depth":"4","parameterNumber":3,"parameterNumberName":"V-component_of_CURRENTS"},"data":[0,0,0,0,0,0,0,0,0,0,0,0,0,0,0,0,0,0,0,0,0,0,0,0,0,0,0,0,0,0,0,0,0,0,0,0,0,0,0,0,0,0,0,0,0,0,0,0,0,0,0,0,0,0,0,0,0,0,0.0042,0.0042,0,0.0003,0.0003,0.0002,-0.0029,-0.0029,-0.003,-0.003,-0.0096,-0.0097,-0.0099,0,0,0,0,0,0,0,0,0,0,0,0,0,0.006,0.006,0.0042,0.0042,0.0041,0.0003,0.0003,0.0002,-0.0029,-0.0029,-0.003,-0.003,-0.0095,-0.0097,-0.0099,0,0,0,0,0,0,0,0,0,0,0,0,0,0.0039,0.006,0.0042,0.0022,0.002,0.0003,0.0002,0.0002,-0.0029,-0.0029,-0.003,-0.003,-0.0095,-0.0097,-0.0099,-0.0108,0,0,-0.0106,-0.0107,0,0,0,0,0,0,0,0,0.004,0.0038,0.0026,0.0024,0.0021,-0.0007,-0.0015,-0.0036,-0.0029,-0.0012,-0.003,-0.003,-0.0068,-0.0072,-0.008,-0.0111,-0.0114,-0.0107,-0.0108,-0.0109,-0.011,0,0,0,0,0,0,0,0.0041,0.0039,0.0025,0.0025,0.0023,0.0005,0.0002,-0.002,-0.0039,-0.0013,-0.0015,-0.0018,-0.0069,-0.0078,-0.0082,-0.0115,-0.0107,-0.0109,-0.011,-0.0111,-0.0159,-0.0159,0,0,0,0,0,0,0.0051,0.0041,0.0027,0.0024,0.0031,0.0005,0.0001,0.0001,-0.0038,-0.0044,-0.0017,-0.0019,-0.0074,-0.0079,-0.0085,-0.0089,-0.0109,-0.0111,-0.0113,-0.0159,-0.0159,-0.0159,0,0,0,0,0,0,0.0051,0.005,0.0028,0.0032,0.0029,0.0005,0.0005,0.0,-0.0007,-0.0041,-0.0047,-0.0019,-0.0074,-0.0081,-0.0098,-0.0092,-0.0112,-0.0114,-0.0159,-0.0159,-0.0159,-0.0103,0,0,0,0,0,0,0.0052,0.005,0.0054,0.0033,0.0029,0.0023,0.0005,-0.0,-0.0007,-0.001,-0.0045,-0.0051,-0.0075,-0.0094,-0.0101,-0.0096,-0.0116,-0.0159,-0.0159,-0.0159,-0.0105,-0.0101,-0.0098,0,0,0,0,0,0.0053,0.0061,0.0055,0.0053,0.0035,0.0024,0.002,0.0001,-0.0007,-0.0007,-0.0029,-0.005,-0.0097,-0.0096,-0.0103,-0.0099,-0.0159,-0.0159,-0.0159,-0.0107,-0.0102,-0.0098,0,0,0,0,0,0,0.0071,0.0058,0.0051,0.0055,0.0043,0.0019,0.0019,0.0006,-0.0012,-0.0013,-0.0047,-0.0055,-0.0068,-0.0091,-0.0089,-0.0113,-0.0133,-0.0134,-0.0091,-0.0086,-0.0083,-0.0067,-0.0118,0,0,0,0,0,0.0078,0.008,0.0063,0.0067,0.0063,0.0042,0.0036,0.0025,0.0006,-0.0002,-0.0026,-0.0052,-0.0073,-0.0085,-0.0108,-0.0119,-0.0144,-0.0122,-0.0118,-0.0115,-0.0108,-0.0141,-0.014,-0.0158,-0.0158,-0.0158,0,0,0.0086,0.008,0.0081,0.0071,0.0061,0.0062,0.0038,0.0034,0.0034,-0.0006,-0.0012,-0.0039,-0.0073,-0.0086,-0.0094,-0.0103,-0.0123,-0.0115,-0.0111,-0.0106,-0.0141,-0.0139,-0.0137,-0.0157,-0.0158,-0.0158,0,0,0.0105,0.0099,0.0107,0.0101,0.0091,0.008,0.0082,0.0062,0.0052,0.0042,0.0014,-0.0006,-0.0039,-0.006,-0.0076,-0.0066,-0.0102,-0.0076,-0.0044,-0.0076,-0.0075,-0.0074,-0.01,-0.0102,-0.0074,-0.0074,-0.0074,0,0.0115,0.0124,0.0108,0.0114,0.0116,0.0092,0.0103,0.009,0.0067,0.0065,0.0048,0.0003,-0.0026,-0.004,-0.0038,-0.0056,-0.0079,-0.0056,-0.007,-0.007,-0.007,-0.0097,-0.01,-0.0071,-0.0071,-0.0071,-0.0072,0,0.0137,0.0147,0.0152,0.0155,0.0154,0.016,0.0144,0.0141,0.0127,0.0113,0.0095,0.0053,0.0029,0.0013,-0.0009,-0.0022,-0.004,-0.0061,-0.0078,-0.0064,-0.0094,-0.0098,-0.0067,-0.0068,-0.0069,-0.0069,0,0,0.0155,0.0166,0.0169,0.0182,0.0178,0.0182,0.0187,0.0185,0.0196,0.0161,0.0166,0.0121,0.0099,0.008,0.0045,0.0015,-0.0007,-0.0017,-0.002,-0.0036,-0.0074,-0.0078,-0.0083,-0.0031,-0.0031,-0.0032,-0.0093,0,0.0178,0.0206,0.0204,0.0234,0.0248,0.0236,0.0243,0.0239,0.023,0.0228,0.018,0.017,0.0124,0.0117,0.0079,0.0018,-0.0015,0.0012,-0.009,-0.0093,-0.0093,-0.0086,-0.0033,-0.0096,-0.0097,-0.0098,-0.0098,0,0.0201,0.0218,0.0252,0.0279,0.0284,0.0298,0.0318,0.0325,0.0313,0.0305,0.0284,0.0248,0.0207,0.0162,0.0064,0.0084,0.0013,-0.0043,-0.0047,-0.0071,-0.0104,-0.0116,-0.0106,-0.0105,-0.0105,-0.0104,-0.0104,0,0.0222,0.0254,0.0286,0.0293,0.0315,0.0331,0.0346,0.0349,0.0372,0.0362,0.0373,0.0311,0.0289,0.0191,0.0081,0.0072,-0.0032,-0.0062,-0.0135,-0.0137,-0.0139,-0.014,-0.0137,-0.0137,-0.0137,-0.0137,-0.0137,0,0.0245,0.0272,0.0301,0.0317,0.0362,0.0366,0.0416,0.0418,0.044,0.0471,0.042,0.0423,0.0295,0.022,0.0105,-0.0018,-0.0016,-0.0125,-0.0152,-0.0115,-0.0112,-0.0142,-0.0142,-0.0139,-0.0139,-0.0138,-0.0138,0,0.0259,0.0276,0.0319,0.0355,0.0373,0.0407,0.0471,0.0507,0.0519,0.0559,0.0561,0.0512,0.0417,0.0282,0.0128,0.0025,-0.0102,-0.0151,-0.0088,-0.0111,-0.0193,-0.0189,-0.0237,-0.0237,-0.0238,-0.0238,-0.0239,0,0.0267,0.029,0.035,0.0384,0.0405,0.0462,0.0504,0.0541,0.0586,0.0611,0.0629,0.0564,0.0507,0.0303,0.0147,-0.0065,-0.0106,-0.0177,-0.0199,-0.0181,-0.0202,-0.0198,-0.0193,-0.0239,-0.024,-0.024,-0.024,0,0.0284,0.0306,0.0341,0.0412,0.0466,0.0532,0.0595,0.0635,0.0676,0.0694,0.0691,0.0589,0.0484,0.0315,0.0155,-0.0005,-0.0133,-0.0184,-0.0184,-0.0206,-0.0185,-0.0205,-0.02,-0.0242,-0.0241,-0.0241,-0.0241,0,0.0297,0.0324,0.0373,0.0435,0.0506,0.0571,0.061,0.0662,0.0706,0.0732,0.073,0.0619,0.0561,0.0346,0.0197,0.0046,-0.0007,-0.0078,-0.0085,-0.0085,-0.003,0.0019,0.0008,0,0,0,0,0,0.0307,0.0334,0.0392,0.0457,0.0531,0.057,0.0655,0.069,0.0734,0.0741,0.074,0.0643,0.044,0.0361,0.021,0.0158,-0.0052,-0.0028,-0.0141,-0.0252,-0.025,-0.0212,0,0,0,0,0,0,0.031,0.036,0.0385,0.0464,0.051,0.059,0.0643,0.0676,0.0687,0.0713,0.062,0.0582,0.0395,0.0525,0.02,0.0156,0.0057,-0.0114,-0.0118,-0.0253,-0.0251,-0.0249,-0.021,0,0,0,0,0]}]]